Total_Precipitation_Accumulation
0.06 0.15 0.21 0.23 0.21 0.17 0.13 0.12 0.24 0.27 0.35 0.45 0.58 0.53 0.52 0.50 0.41 0.42 0.50 0.49 0.46 0.45 0.47 0.49 0.52 0.47 0.45 0.50 0.54 0.70 1.09 1.31 1.29 1.26 1.27 1.24 1.24 1.32 1.38 1.44 1.49 1.71 1.89 2.00
0.10 0.14 0.15 0.16 0.19 0.17 0.11 0.10 0.10 0.15 0.29 0.34 0.49 0.59 0.60 0.58 0.53 0.50 0.51 0.47 0.44 0.38 0.47 0.53 0.55 0.54 0.51 0.52 0.57 0.71 0.98 1.21 1.21 1.20 1.18 1.12 1.15 1.25 1.42 1.51 1.66 1.84 1.89 1.87
0.15 0.19 0.17 0.24 0.20 0.17 0.15 0.13 0.14 0.22 0.35 0.33 0.39 0.51 0.59 0.61 0.58 0.52 0.55 0.45 0.40 0.43 0.54 0.72 0.65 0.62 0.66 0.61 0.62 0.75 0.97 1.15 1.24 1.22 1.23 1.21 1.19 1.35 1.55 1.70 1.84 1.95 1.94 1.89
0.21 0.25 0.36 0.28 0.21 0.22 0.24 0.26 0.27 0.30 0.35 0.37 0.48 0.54 0.65 0.82 0.69 0.53 0.55 0.55 0.55 0.52 0.57 0.64 0.62 0.64 0.69 0.69 0.70 0.81 1.02 1.24 1.33 1.27 1.32 1.40 1.41 1.50 1.72 1.93 2.07 2.08 2.03 1.95
0.31 0.34 0.40 0.37 0.29 0.34 0.37 0.41 0.42 0.46 0.40 0.45 0.51 0.60 0.71 0.69 0.66 0.70 0.68 0.65 0.65 0.69 0.67 0.74 0.78 0.77 0.76 0.83 0.88 0.97 1.07 1.24 1.36 1.41 1.50 1.53 1.57 1.75 1.96 2.14 2.18 2.14 2.17 2.10
0.44 0.51 0.58 0.57 0.42 0.36 0.42 0.72 0.57 0.59 0.57 0.52 0.55 0.78 0.86 0.72 0.65 0.64 0.73 0.78 0.73 0.77 0.82 0.85 0.90 0.95 0.95 1.02 1.15 1.30 1.39 1.47 1.64 1.82 1.98 2.06 2.11 2.19 2.24 2.31 2.22 2.19 2.18 2.18
0.64 0.75 0.69 0.53 0.46 0.41 0.78 1.10 0.82 0.79 0.76 0.67 0.79 0.89 0.87 0.74 0.67 0.61 0.63 0.71 0.75 0.76 0.85 0.93 0.94 1.05 1.20 1.29 1.40 1.53 1.68 1.76 1.95 2.25 2.42 2.42 2.43 2.38 2.30 2.30 2.32 2.30 2.21 2.19
0.85 1.07 1.12 0.62 0.58 0.88 1.11 0.92 0.95 0.99 0.96 0.89 0.87 0.92 0.92 0.87 0.70 0.63 0.62 0.65 0.71 0.75 0.81 0.96 1.15 1.31 1.56 1.67 1.62 1.72 1.91 2.06 2.25 2.48 2.43 2.36 2.54 2.48 2.44 2.51 2.50 2.37 2.27 2.18
1.11 1.30 1.10 0.76 0.87 1.06 1.05 0.99 1.00 1.00 0.96 0.86 0.80 0.92 0.88 0.78 0.75 0.62 0.60 0.65 0.69 0.75 0.87 0.99 1.21 1.57 1.83 1.88 1.93 1.98 2.09 2.19 2.25 2.35 2.53 2.70 2.77 2.67 2.59 2.59 2.52 2.33 2.22 2.08
1.32 1.41 1.18 1.01 1.00 0.98 1.02 1.02 0.96 0.88 0.84 0.84 0.78 0.76 0.75 0.69 0.66 0.63 0.63 0.70 0.73 0.80 0.96 1.15 1.33 1.65 1.81 1.84 1.89 1.95 1.98 1.96 2.04 2.19 2.34 2.44 2.67 2.73 2.65 2.53 2.46 2.39 2.29 2.13
1.64 1.71 1.54 1.40 1.20 1.07 1.06 1.01 1.01 0.97 0.89 0.85 0.77 0.71 0.66 0.64 0.63 0.63 0.63 0.73 0.80 0.87 0.97 1.10 1.27 1.47 1.57 1.73 1.81 1.91 1.93 1.88 1.88 1.90 2.01 2.10 2.20 2.31 2.29 2.28 2.10 2.00 1.92 1.85
1.84 1.61 1.52 1.67 1.45 1.25 1.18 1.15 1.19 1.23 1.19 1.03 0.89 0.82 0.76 0.72 0.64 0.60 0.59 0.69 0.80 0.90 1.00 1.09 1.25 1.45 1.54 1.67 1.76 1.81 1.79 1.73 1.75 1.76 1.83 1.87 1.88 1.81 1.65 1.58 1.43 1.29 1.25 1.20
1.48 1.41 1.39 1.51 1.45 1.41 1.45 1.49 1.50 1.42 1.25 1.01 0.87 0.83 0.77 0.68 0.62 0.60 0.64 0.76 0.90 0.96 1.04 1.14 1.25 1.39 1.56 1.72 1.82 1.89 1.80 1.67 1.56 1.51 1.56 1.58 1.64 1.74 1.79 1.57 1.36 1.18 1.04 0.91
1.37 1.50 1.68 1.70 1.66 1.54 1.53 1.62 1.59 1.38 1.25 1.10 0.94 0.85 0.78 0.66 0.57 0.53 0.56 0.67 0.79 0.88 0.94 1.04 1.19 1.29 1.45 1.62 1.68 1.74 1.71 1.63 1.51 1.46 1.49 1.52 1.58 1.66 1.79 1.77 1.50 1.17 1.02 0.89
1.47 1.46 1.60 1.63 1.61 1.60 1.55 1.54 1.60 1.51 1.32 1.26 1.17 1.03 0.90 0.85 0.79 0.72 0.70 0.73 0.85 0.93 0.97 1.04 1.16 1.22 1.36 1.56 1.61 1.57 1.53 1.47 1.41 1.44 1.47 1.46 1.52 1.57 1.58 1.61 1.51 1.33 1.11 0.90
1.71 1.53 1.53 1.52 1.50 1.48 1.45 1.38 1.35 1.36 1.28 1.19 1.14 1.06 0.92 0.86 0.88 0.84 0.85 0.96 1.15 1.18 1.13 1.13 1.17 1.23 1.39 1.58 1.58 1.50 1.40 1.29 1.20 1.24 1.29 1.28 1.32 1.36 1.35 1.39 1.36 1.27 1.13 0.88
1.65 1.62 1.53 1.39 1.33 1.33 1.25 1.17 1.15 1.12 1.21 1.22 1.07 0.94 0.84 0.75 0.79 0.87 0.97 1.08 1.14 1.12 1.10 1.13 1.10 1.09 1.27 1.47 1.57 1.51 1.34 1.15 0.94 0.88 0.96 1.04 1.14 1.20 1.20 1.20 1.21 1.17 0.99 0.73
1.32 1.33 1.33 1.25 1.20 1.13 1.08 1.02 0.98 0.93 0.98 1.05 0.94 0.87 0.85 0.83 0.92 1.02 1.10 1.16 1.15 1.08 1.03 1.00 0.95 0.98 1.14 1.22 1.30 1.35 1.26 1.15 0.98 0.88 0.90 0.94 1.01 1.10 1.11 1.06 1.04 1.00 0.89 0.69
1.10 1.02 1.07 1.06 0.99 0.89 0.84 0.82 0.82 0.83 0.83 0.89 0.87 0.84 0.91 0.99 1.11 1.19 1.20 1.30 1.36 1.23 1.05 0.93 0.90 0.90 1.01 1.04 1.07 1.19 1.19 1.13 1.02 0.93 0.93 0.91 0.94 1.03 1.02 0.96 0.91 0.86 0.79 0.69
1.08 0.97 1.00 0.98 0.90 0.81 0.72 0.70 0.72 0.73 0.78 0.80 0.83 0.86 1.01 1.14 1.28 1.39 1.42 1.44 1.43 1.33 1.10 0.91 0.81 0.81 0.86 0.91 0.98 1.01 1.06 1.03 0.90 0.85 0.85 0.89 0.87 0.88 0.85 0.81 0.78 0.73 0.68 0.66
1.05 1.04 1.04 1.05 0.98 0.80 0.70 0.67 0.70 0.74 0.78 0.83 0.91 0.96 1.11 1.26 1.36 1.48 1.64 1.62 1.36 1.22 1.07 0.91 0.78 0.76 0.76 0.82 0.88 0.91 0.97 0.99 0.91 0.83 0.82 0.83 0.81 0.80 0.75 0.73 0.69 0.63 0.60 0.59
0.96 0.99 0.95 0.92 0.87 0.82 0.75 0.70 0.73 0.78 0.87 0.97 1.01 1.03 1.15 1.27 1.39 1.51 1.54 1.64 1.45 1.30 1.02 0.82 0.72 0.68 0.68 0.73 0.74 0.82 0.85 0.88 0.83 0.77 0.72 0.73 0.74 0.78 0.78 0.72 0.65 0.59 0.58 0.59
0.86 0.88 0.87 0.84 0.83 0.83 0.75 0.70 0.74 0.81 0.95 1.08 1.16 1.20 1.27 1.28 1.38 1.71 1.76 1.54 1.39 1.26 0.92 0.75 0.72 0.65 0.62 0.61 0.67 0.73 0.75 0.77 0.77 0.68 0.62 0.61 0.65 0.73 0.77 0.75 0.71 0.63 0.60 0.58
0.87 0.81 0.80 0.78 0.75 0.78 0.76 0.72 0.76 0.86 0.92 0.99 1.04 1.09 1.20 1.22 1.21 1.33 1.58 1.66 1.50 1.28 0.95 0.81 0.73 0.62 0.56 0.53 0.66 0.73 0.74 0.74 0.73 0.61 0.52 0.52 0.57 0.68 0.73 0.73 0.72 0.66 0.62 0.59
0.89 0.81 0.73 0.73 0.79 0.87 0.88 0.90 0.97 0.99 0.99 0.98 0.89 0.88 0.99 1.12 1.26 1.25 1.27 1.35 1.39 1.20 1.00 0.89 0.79 0.71 0.57 0.54 0.63 0.73 0.75 0.74 0.68 0.60 0.55 0.60 0.65 0.70 0.68 0.65 0.64 0.61 0.61 0.61
0.92 0.84 0.82 0.77 0.77 0.85 0.96 1.09 1.25 1.25 1.21 1.22 1.05 0.86 0.86 0.92 0.97 1.03 1.08 1.12 1.14 1.11 1.00 0.94 0.83 0.76 0.69 0.66 0.69 0.76 0.80 0.83 0.74 0.67 0.68 0.74 0.73 0.70 0.69 0.64 0.58 0.58 0.56 0.54
0.83 0.82 0.80 0.79 0.83 0.87 0.98 1.12 1.32 1.38 1.33 1.34 1.19 0.94 0.82 0.83 0.82 0.87 0.94 1.02 1.03 1.02 0.98 0.91 0.83 0.74 0.69 0.68 0.70 0.73 0.78 0.82 0.79 0.76 0.73 0.73 0.73 0.73 0.71 0.66 0.63 0.60 0.58 0.54